Theta_e
359 356 351 359 348 351 350 354 355 358 350 350 352 352 347 349 345 349 354 361 358 356 353 353 352 351 351 352 350 351 351 351 352 353 353 355 355 353 352 352 351 349 347
365 359 351 360 358 350 358 352 359 351 351 352 351 352 351 351 355 346 350 355 359 359 356 354 351 351 352 353 353 352 351 352 353 354 354 354 354 352 351 352 351 349 347
358 354 359 350 355 366 364 356 359 362 352 352 355 356 351 354 352 354 350 350 355 361 359 357 355 351 351 351 352 353 353 354 354 354 353 353 352 352 351 350 352 350 348
360 348 359 353 357 363 361 347 358 344 354 345 353 356 351 353 353 355 354 354 351 351 359 360 360 357 355 354 354 353 354 356 356 356 356 354 353 352 351 350 349 351 349
365 358 356 353 359 359 359 347 353 356 353 351 349 352 351 351 351 348 351 353 354 354 354 360 361 360 358 357 356 356 356 357 359 359 359 358 357 356 354 353 350 350 351
366 367 354 365 366 362 354 354 358 352 344 344 342 345 349 350 352 351 350 351 352 353 353 354 356 355 360 361 360 358 357 359 360 361 360 361 361 359 357 356 354 352 351
368 369 363 365 359 352 345 365 361 353 355 350 355 349 350 347 346 350 350 349 351 353 353 353 359 356 353 362 361 361 360 360 361 362 362 362 362 361 360 358 356 355 351
368 366 360 363 358 359 363 363 359 351 355 349 348 348 335 343 345 344 350 348 350 349 351 354 353 356 358 356 356 361 362 362 362 363 362 362 361 361 360 359 357 356 355
365 365 365 368 350 365 361 362 358 348 355 350 353 351 337 334 344 345 346 347 348 351 348 350 355 356 357 360 364 362 362 358 361 360 361 360 360 359 359 359 359 358 356
363 360 368 368 362 352 348 363 359 355 355 351 350 350 351 352 345 337 346 345 351 345 349 352 350 355 357 359 365 362 361 357 354 355 357 358 359 360 361 361 360 359 359
364 360 365 369 361 352 350 360 364 362 362 352 341 354 353 354 352 350 336 340 347 347 349 351 352 352 356 357 357 354 354 351 351 353 355 355 357 359 362 362 361 360 360
363 362 362 369 365 351 358 352 365 364 365 364 359 357 354 348 347 346 342 342 343 348 349 350 351 355 357 361 359 358 355 353 351 351 351 352 354 356 360 361 360 359 358
357 362 369 370 363 367 360 366 368 366 362 361 365 357 358 352 356 349 352 346 344 346 353 355 355 357 357 363 359 361 364 353 350 348 347 348 350 352 354 356 355 355 354
355 366 365 365 368 365 366 366 365 363 364 361 360 362 360 355 358 349 354 349 345 348 351 356 356 360 362 364 361 360 356 359 354 347 347 345 346 348 350 350 348 348 347
359 360 363 364 365 360 367 366 358 361 363 358 364 361 359 353 356 354 356 355 349 343 344 354 350 362 362 365 359 365 364 358 358 351 348 344 343 346 348 345 344 344 345
350 349 349 358 364 360 363 365 363 354 358 355 357 361 363 349 359 357 354 357 355 351 342 349 356 363 365 364 365 368 368 357 353 352 350 345 344 345 346 343 342 341 340
351 346 338 340 355 363 366 365 361 357 359 360 365 361 360 363 355 360 357 357 355 356 350 352 357 370 367 367 364 368 369 365 361 349 352 346 344 345 343 341 339 336 334
368 354 344 344 356 362 362 363 359 360 357 359 361 359 360 358 362 363 360 358 360 360 356 351 356 355 355 360 370 367 367 360 360 350 346 342 342 341 337 336 333 329 326
367 364 365 366 366 362 365 361 363 362 359 359 363 362 360 362 361 359 363 361 357 359 359 354 351 358 360 360 361 366 367 366 366 352 341 342 339 337 332 329 326 322 319
365 364 365 365 364 364 364 363 362 363 362 361 362 364 363 361 361 362 360 361 358 359 356 356 352 350 352 355 362 357 357 356 354 357 353 349 343 336 331 327 324 321 317
364 365 364 363 364 361 358 361 363 362 359 358 360 362 363 363 354 357 358 360 359 358 355 351 349 350 350 357 357 359 354 356 356 358 352 358 349 340 332 328 329 326 320
365 364 363 362 360 359 344 340 356 361 362 361 358 362 365 357 351 342 341 342 352 359 357 355 354 351 352 357 358 356 353 348 342 357 354 351 355 352 348 335 333 327 322
365 363 362 362 361 361 340 333 338 357 361 362 362 360 360 356 354 358 342 339 340 337 342 352 350 352 353 355 358 357 355 355 353 354 353 346 353 353 357 343 331 326 322
362 362 361 363 363 362 339 334 334 353 358 358 360 362 361 360 361 362 362 359 354 355 352 347 348 349 352 354 358 357 355 356 359 360 360 349 355 353 354 344 329 325 321
356 358 359 361 361 362 335 330 335 351 352 355 358 359 358 363 348 338 356 358 361 361 347 338 341 339 338 336 342 356 351 347 343 344 348 344 343 348 350 341 328 323 320
347 354 356 359 349 360 339 329 331 353 352 351 352 355 339 347 335 329 352 356 353 354 360 360 351 342 336 343 332 347 353 348 346 345 348 343 345 346 342 353 337 326 322
Wind_Speed
3 7 5 2 3 6 4 2 1 2 4 6 3 6 6 7 10 7 5 12 9 7 6 5 4 3 1 1 2 3 4 4 5 5 6 8 8 6 5 4 4 4 4
2 5 8 1 5 7 4 2 4 3 2 5 6 5 4 5 4 9 6 6 10 9 9 6 4 2 1 3 0 3 3 4 4 5 6 5 5 4 3 3 2 2 2
8 3 3 3 2 3 6 2 5 2 5 4 2 4 4 2 2 6 7 6 6 8 8 8 6 4 3 2 2 3 3 4 5 6 6 6 5 4 4 4 3 2 2
8 7 1 1 4 2 5 4 0 5 5 3 3 2 4 4 4 2 7 7 7 6 7 9 9 8 6 5 4 4 4 5 6 6 6 7 6 6 5 4 4 4 4
5 4 3 2 2 1 5 2 3 1 4 2 2 2 4 4 5 5 5 6 6 9 6 10 10 9 8 7 6 6 6 7 7 8 8 8 7 7 6 6 6 6 6
3 1 4 4 1 3 4 2 2 2 6 5 4 5 4 4 5 4 5 7 5 6 8 8 6 6 11 10 9 8 9 8 8 9 9 9 9 8 8 7 7 7 8
4 2 3 1 6 2 4 3 2 2 2 2 2 1 2 3 3 4 6 5 6 6 7 4 4 4 5 11 11 11 10 9 9 10 10 11 11 10 9 9 9 9 9
4 2 3 3 9 4 4 2 2 3 2 2 2 1 3 3 2 1 4 2 1 5 5 5 5 2 4 5 8 12 10 9 9 10 11 11 11 11 11 11 10 10 10
5 5 6 1 5 1 1 2 2 6 2 1 2 1 3 1 2 2 2 4 2 0 4 4 5 6 5 4 6 8 10 9 8 9 10 10 11 11 12 11 10 10 11
5 6 5 4 6 4 5 3 2 2 2 4 2 2 2 2 0 1 2 3 4 4 3 4 6 6 6 5 4 7 7 7 7 6 8 9 10 10 11 10 8 8 10
6 5 5 3 5 5 5 2 1 2 3 2 2 1 0 1 3 1 3 3 3 4 4 3 4 5 6 3 5 5 5 4 4 5 6 7 9 10 11 10 8 6 6
4 4 5 3 4 4 1 3 2 1 3 4 3 4 3 1 3 3 3 3 4 3 4 4 3 2 3 4 5 6 7 3 5 7 5 6 6 8 11 11 10 7 6
4 8 5 4 4 3 6 2 1 3 1 3 4 3 3 2 1 2 2 2 3 1 2 3 3 0 2 5 5 2 8 7 7 7 5 6 5 5 9 9 9 9 7
2 1 4 6 4 6 4 3 3 3 4 3 4 3 4 3 4 2 3 3 3 1 2 2 3 2 1 4 4 5 5 9 8 9 5 5 5 3 5 7 8 7 8
4 1 4 7 6 6 6 5 4 5 1 3 3 4 3 5 5 2 3 2 2 2 3 2 2 2 2 4 1 4 5 8 10 11 7 5 3 2 3 5 7 7 9
5 8 10 7 7 8 6 5 4 5 6 6 4 6 3 3 5 5 3 3 1 1 2 1 3 2 3 3 3 2 5 12 10 13 10 6 5 4 4 5 8 7 8
9 12 8 5 6 6 6 5 5 4 6 5 4 4 5 3 4 4 5 5 2 2 2 4 2 2 1 5 4 2 5 7 3 11 11 7 8 7 7 7 8 9 7
6 13 10 13 14 7 6 6 7 5 7 6 5 5 5 4 4 3 3 6 4 2 2 5 4 4 4 7 5 4 5 6 5 11 11 9 9 8 8 9 8 8 8
7 7 6 5 5 5 5 7 7 7 6 8 6 6 6 5 4 4 5 4 5 3 3 3 4 4 3 4 4 4 6 5 6 1 7 12 9 9 10 9 9 8 8
9 8 7 8 7 7 7 7 8 6 5 6 7 6 7 7 7 6 6 5 6 4 4 4 4 4 4 7 5 4 3 3 5 4 3 7 10 9 10 10 11 10 9
10 9 9 8 10 9 9 10 9 9 7 7 7 7 7 7 11 9 6 6 6 5 5 5 5 5 4 4 2 2 2 3 4 4 5 2 4 4 5 8 7 10 11
8 9 10 10 10 9 14 13 12 9 11 11 9 7 9 7 10 10 11 11 7 4 5 5 6 5 4 3 4 3 2 3 4 4 4 5 4 4 7 7 14 14 13
7 9 11 11 10 11 12 9 11 9 9 9 9 8 8 10 11 11 13 14 12 11 12 7 8 7 7 5 4 5 5 4 5 6 5 7 5 5 4 9 18 17 16
6 7 9 10 10 10 12 12 9 7 8 10 8 10 11 11 8 6 9 9 11 11 10 9 11 12 12 11 6 6 6 7 7 8 8 7 7 8 2 1 13 19 19
7 8 8 10 10 11 12 14 11 9 10 11 10 11 11 9 12 14 9 9 9 10 12 18 17 17 17 15 11 2 5 5 8 8 4 3 4 4 3 4 5 11 11
6 6 9 10 13 13 12 15 11 8 12 11 11 12 13 14 13 11 12 12 11 12 9 9 5 11 13 11 14 10 9 9 9 9 9 6 5 3 5 3 6 7 6
Wind_Direction
118 124 12 206 85 149 174 135 293 257 25 53 43 38 37 80 122 131 144 160 152 148 143 137 139 128 116 47 31 25 24 8 3 359 350 353 36 23 20 13 23 32 35
288 114 183 194 123 147 117 117 249 94 32 83 76 53 35 47 75 134 145 165 168 169 163 168 166 176 274 17 277 349 346 337 330 328 327 336 338 350 352 338 351 8 10
51 5 22 53 82 97 134 77 268 113 76 43 71 150 119 132 49 142 152 152 173 185 187 178 182 195 218 245 283 307 310 306 314 311 310 308 315 317 316 317 316 301 288
126 230 283 288 190 115 113 197 286 230 143 140 219 194 178 162 167 194 169 168 168 163 203 203 193 201 211 224 248 275 286 295 295 300 298 297 299 297 297 292 285 274 258
161 231 177 184 15 2 101 198 267 147 53 355 285 154 205 153 193 172 159 135 144 163 189 196 204 206 214 220 236 250 263 272 280 286 291 292 290 288 284 276 272 269 262
161 83 325 143 168 29 110 191 123 58 149 217 234 180 216 239 179 225 178 151 156 178 170 177 188 209 220 220 227 238 248 261 274 281 285 286 283 278 273 267 260 258 260
185 218 212 196 66 204 147 202 203 221 241 187 237 278 178 186 217 200 208 149 178 176 146 178 164 195 201 224 227 231 240 254 267 278 285 286 285 282 273 265 257 248 250
174 149 316 202 132 189 104 53 93 329 292 98 15 24 307 255 189 207 72 127 14 164 152 164 143 141 208 194 216 223 235 251 265 278 288 294 296 293 286 274 260 251 245
182 171 208 272 144 319 142 209 106 255 335 82 209 288 27 323 48 114 173 99 208 265 110 145 158 173 231 214 188 202 226 251 272 287 302 309 308 304 300 290 275 259 252
181 165 206 163 109 66 337 202 141 11 321 322 316 152 178 171 18 85 100 156 212 144 165 183 171 181 204 224 96 131 193 244 284 309 316 324 322 322 323 316 298 276 258
167 191 177 173 131 112 268 337 107 68 354 342 312 261 170 198 219 263 165 230 232 167 208 244 153 186 200 116 137 142 179 230 298 301 318 330 340 346 347 347 335 327 294
163 176 182 182 89 121 205 152 248 74 6 333 329 360 9 60 326 317 122 180 157 188 186 141 242 124 154 140 98 164 181 222 271 271 324 324 341 1 359 356 353 356 355
178 173 162 145 161 178 231 185 195 4 298 321 332 357 332 280 276 287 31 225 139 173 200 162 169 117 172 135 151 213 184 207 241 262 300 314 344 19 0 354 359 8 21
355 277 170 171 205 175 243 158 209 202 227 232 290 317 320 313 301 340 320 52 1 187 157 222 209 182 85 48 110 320 172 212 223 241 282 315 334 28 13 5 20 34 47
149 78 206 175 206 188 206 180 230 225 173 249 235 265 265 306 319 297 307 36 108 345 286 202 259 141 87 82 63 336 324 204 222 224 243 278 297 108 61 54 62 61 66
175 89 338 237 202 178 196 186 221 227 166 217 230 256 235 315 341 298 330 322 10 273 328 330 292 131 76 33 284 313 324 299 274 214 211 234 230 146 114 100 98 88 81
139 138 192 287 278 188 186 194 236 268 222 207 266 291 261 187 293 325 350 313 286 310 303 307 13 68 336 240 254 252 268 282 230 200 213 201 210 166 143 132 127 117 102
196 164 180 219 207 194 186 209 223 238 194 211 220 235 268 261 245 277 294 295 319 333 350 326 318 323 297 278 220 233 250 279 282 200 216 205 198 164 150 152 143 135 119
210 217 211 191 204 229 228 201 240 248 220 222 199 202 235 242 267 291 295 316 305 312 291 249 271 262 270 288 271 250 246 253 268 145 182 215 189 160 162 163 156 160 141
195 212 229 189 209 218 215 207 202 233 269 246 236 218 210 211 207 218 251 258 284 286 275 282 279 272 257 262 239 228 328 329 323 333 26 233 159 172 169 177 172 174 159
202 201 211 227 200 215 224 214 204 199 211 244 266 254 237 220 212 207 214 239 231 253 248 259 264 265 275 354 344 301 307 319 333 350 326 207 155 178 198 193 192 190 182
215 207 211 212 226 226 225 202 198 211 205 209 222 235 252 250 231 212 216 235 225 249 278 284 285 288 292 345 347 351 326 337 309 281 341 307 315 217 199 187 197 190 195
231 231 221 215 224 230 252 224 213 223 216 212 219 226 241 249 216 211 221 227 240 215 217 242 267 273 293 292 316 317 311 299 290 292 289 284 280 270 235 195 185 178 192
259 252 251 240 230 230 223 239 221 233 239 233 231 216 226 241 259 227 231 222 233 239 221 214 227 244 245 255 251 256 261 269 274 268 260 260 264 263 168 113 182 171 192
323 274 261 259 244 243 230 225 210 235 240 245 242 239 237 239 231 238 238 244 246 236 223 221 223 226 229 238 239 287 275 275 275 272 276 261 277 275 228 155 171 202 200
316 325 290 268 257 252 237 222 208 229 237 239 239 241 238 239 238 234 229 234 245 246 251 264 214 251 249 242 239 224 240 250 256 277 256 255 281 306 300 158 172 177 203